This demonstration page uses our WeatherBlox Daily Observations layout. Learn more.

Left ArrowRight Arrow

Hourly Observations for December 14, 2016

Temp ( °F °C ) Dew Point ( °F °C ) Humidity (%) Winds ( mph kmh ) Pressure ( in mb ) Visibility ( mi km ) Precip ( " mm )
12:51 am 00:51 Clear 45 7.2 35 1.7 68 68 ESE 3 6 30.07 1018 10 16 N/A
1:51 am 01:51 Clear 44 6.7 35 1.7 71 71 N N/A 30.07 1018 10 16 N/A
2:51 am 02:51 Clear 43 6.1 35 1.7 74 74 E 5 7 30.08 1019 10 16 N/A
3:51 am 03:51 Clear 41 5 34 1.1 76 76 ESE 5 7 30.08 1019 10 16 N/A
4:51 am 04:51 Clear 41 5 34 1.1 76 76 ESE 3 6 30.08 1019 10 16 N/A
5:51 am 05:51 Clear 41 5 34 1.1 76 76 SE 5 7 30.10 1019 10 16 N/A
6:51 am 06:51 Clear 39 3.9 33 0.6 79 79 E 5 7 30.14 1021 10 16 N/A
7:51 am 07:51 Sunny 42 5.6 35 1.7 76 76 SSE 5 7 30.15 1021 10 16 N/A
8:51 am 08:51 Sunny 48 8.9 36 2.2 63 63 SE 6 9 30.18 1022 10 16 N/A
9:51 am 09:51 Sunny 55 12.8 38 3.3 53 53 SE 6 9 30.17 1022 10 16 N/A
10:51 am 10:51 Sunny 59 15 38 3.3 46 46 N N/A 30.16 1021 10 16 N/A
11:51 am 11:51 Sunny 64 17.8 39 3.9 40 40 N N/A 30.12 1020 10 16 N/A
12:51 pm 12:51 Sunny 67 19.4 39 3.9 36 36 SW 3 6 30.08 1019 10 16 N/A
1:51 pm 13:51 Sunny 68 20 39 3.9 35 35 N N/A 30.06 1018 10 16 N/A
2:51 pm 14:51 Sunny 71 21.7 38 3.3 30 30 N N/A 30.04 1017 10 16 N/A
3:51 pm 15:51 Sunny 71 21.7 38 3.3 30 30 SW 5 7 30.04 1017 10 16 N/A
4:51 pm 16:51 Sunny 68 20 38 3.3 33 33 WNW 3 6 30.05 1018 10 16 N/A
5:51 pm 17:51 Clear 60 15.6 36 2.2 41 41 NW 5 7 30.07 1018 10 16 N/A
6:51 pm 18:51 Clear 55 12.8 36 2.2 49 49 NE 7 11 30.09 1019 10 16 N/A
7:51 pm 19:51 Clear 56 13.3 37 2.8 49 49 N N/A 30.10 1019 10 16 N/A
8:51 pm 20:51 Clear with Light Rain 49 9.4 34 1.1 56 56 ESE 5 7 30.11 1020 10 16 N/A
9:51 pm 21:51 Clear 47 8.3 34 1.1 61 61 NE 3 6 30.11 1020 10 16 N/A
10:51 pm 22:51 Clear 48 8.9 35 1.7 61 61 SW 3 6 30.11 1020 10 16 N/A
11:51 pm 23:51 Clear 44 6.7 33 0.6 65 65 N N/A 30.11 1020 10 16 N/A

Powered by AerisWeather